Mosby, MO

5:23 AM CST on December 16, 2019 (GMT -0600)
Clay County Regional

Weather History for KGPH - October, 2019

Change the Weather History Date:

Monday, October 14, 2019

  Actual Average (WUND) Record (WUND)
Temperature  
Mean Temperature 52 °F -  
Max Temperature 71 °F - - (-1)
Min Temperature 33 °F - - (-1)
Degree Days  
Heating Degree Days 13    
Growing Degree Days 2 (Base 50)    
Moisture  
Dew Point 40 °F    
Average Humidity 71    
Maximum Humidity 100    
Minimum Humidity 35    
Precipitation  
Precipitation 0.00 in - - ()
Sea Level Pressure  
Sea Level Pressure 29.98 in    
Wind  
Wind Speed 1 mph ()    
Max Wind Speed 9 mph    
Max Gust Speed -    
Visibility 9.7 miles    
Events      
Averages and records for this station are not official NWS values.
T = Trace of Precipitation, MM = Missing Value Source: Averaged Metar Reports

Daily Weather History Graph

Daily Weather History Graph

Search for Another Location

Airport or City:

Astronomy

Oct. 14, 2019 Rise Set
Actual Time 7:25 AM CDT 6:40 PM CDT
Civil Twilight 6:58 AM CDT 7:06 PM CDT
Nautical Twilight 6:27 AM CDT 7:38 PM CDT
Astronomical Twilight 5:56 AM CDT 8:09 PM CDT
Moon 7:30 PM CDT (10/14) 7:58 AM CDT (10/14)
Length of Visible Light 12h 08m
Length of Day
11h 14m
Full, 99% of the Moon is Illuminated
Oct 14
Full
Oct 21
Last Quarter
Oct 27
New
Nov 4
First Quarter
Nov 12
Full

Hourly Weather History & Observations

Time (CDT) Temp. Dew Point Humidity Pressure Visibility Wind Dir Wind Speed Gust Speed Precip Events Conditions
12:15 AM 39.2 °F 37.4 °F 93% 30.03 in 10.0 mi Calm Calm - N/A   Clear
12:35 AM 39.2 °F 37.4 °F 93% 30.02 in 10.0 mi Calm Calm - N/A   Clear
12:55 AM 37.4 °F 35.6 °F 93% 30.02 in 10.0 mi Calm Calm - N/A   Clear
1:15 AM 37.4 °F 37.4 °F 100% 30.02 in 10.0 mi Calm Calm - N/A   Clear
1:35 AM 37.4 °F 37.4 °F 100% 30.02 in 10.0 mi Calm Calm - N/A   Clear
1:55 AM 37.4 °F 35.6 °F 93% 30.02 in 10.0 mi Calm Calm - N/A   Clear
2:15 AM 35.6 °F 35.6 °F 100% 30.02 in 10.0 mi Calm Calm - N/A   Clear
2:35 AM 35.6 °F 35.6 °F 100% 30.02 in 5.0 mi Calm Calm - N/A   Clear
3:15 AM 35.6 °F 35.6 °F 100% 30.03 in 10.0 mi Calm Calm - N/A   Clear
3:35 AM 35.6 °F 35.6 °F 100% 30.04 in 10.0 mi Calm Calm - N/A   Clear
3:55 AM 35.6 °F 35.6 °F 100% 30.05 in 10.0 mi Calm Calm - N/A   Clear
4:15 AM 35.6 °F 33.8 °F 93% 30.05 in 7.0 mi Calm Calm - N/A   Clear
4:35 AM 33.8 °F 33.8 °F 100% 30.05 in 10.0 mi Calm Calm - N/A   Clear
4:55 AM 33.8 °F 33.8 °F 100% 30.05 in 10.0 mi Calm Calm - N/A   Clear
5:15 AM 33.8 °F 33.8 °F 100% 30.05 in 10.0 mi Calm Calm - N/A   Clear
5:35 AM 33.8 °F 33.8 °F 100% 30.05 in 10.0 mi Calm Calm - N/A   Clear
5:55 AM 33.8 °F 33.8 °F 100% 30.05 in 10.0 mi Calm Calm - N/A   Clear
6:15 AM 33.8 °F 33.8 °F 100% 30.04 in 10.0 mi Calm Calm - N/A   Clear
6:35 AM 33.8 °F 33.8 °F 100% 30.04 in 10.0 mi Calm Calm - N/A   Clear
6:55 AM 33.8 °F 33.8 °F 100% 30.04 in 10.0 mi Calm Calm - N/A   Clear
7:35 AM 33.8 °F 33.8 °F 100% 30.04 in 10.0 mi Calm Calm - N/A   Clear
7:55 AM 33.8 °F 33.8 °F 100% 30.05 in 10.0 mi Calm Calm - N/A   Clear
8:35 AM 33.8 °F 33.8 °F 100% 30.06 in 10.0 mi Calm Calm - N/A   Clear
8:55 AM 35.6 °F 33.8 °F 93% 30.07 in 5.0 mi Calm Calm - N/A   Clear
9:15 AM 37.4 °F 35.6 °F 93% 30.08 in 10.0 mi Calm Calm - N/A   Clear
9:35 AM 41.0 °F 39.2 °F 93% 30.08 in 10.0 mi Calm Calm - N/A   Scattered Clouds
10:35 AM 50.0 °F 41.0 °F 71% 30.07 in 5.0 mi Calm Calm - N/A   Haze
11:15 AM 53.6 °F 41.0 °F 62% 30.07 in 7.0 mi Calm Calm - N/A   Clear
11:35 AM 57.2 °F 41.0 °F 55% 30.06 in 10.0 mi Calm Calm - N/A   Clear
11:55 AM 59.0 °F 37.4 °F 45% 30.05 in 10.0 mi SSE 3.5 mph - N/A   Clear
12:15 PM 59.0 °F 41.0 °F 51% 30.05 in 10.0 mi Calm Calm - N/A   Clear
12:35 PM 60.8 °F 41.0 °F 48% 30.04 in 10.0 mi Calm Calm - N/A   Clear
12:55 PM 62.6 °F 42.8 °F 48% 30.03 in 10.0 mi Calm Calm - N/A   Clear
1:15 PM 64.4 °F 42.8 °F 45% 30.02 in 10.0 mi Calm Calm - N/A   Clear
1:35 PM 64.4 °F 42.8 °F 45% 30.01 in 10.0 mi Calm Calm - N/A   Clear
2:15 PM 68.0 °F 42.8 °F 40% 29.98 in 10.0 mi Calm Calm - N/A   Clear
2:35 PM 69.8 °F 44.6 °F 40% 29.97 in 10.0 mi Calm Calm - N/A   Clear
2:55 PM 69.8 °F 44.6 °F 40% 29.96 in 10.0 mi SE 9.2 mph - N/A   Clear
4:35 PM 71.6 °F 42.8 °F 35% 29.92 in 10.0 mi SSE 9.2 mph - N/A   Clear
4:55 PM 71.6 °F 42.8 °F 35% 29.91 in 10.0 mi SE 9.2 mph - N/A   Clear
5:15 PM 71.6 °F 42.8 °F 35% 29.91 in 10.0 mi SE 9.2 mph - N/A   Clear
5:35 PM 71.6 °F 42.8 °F 35% 29.91 in 10.0 mi SSE 8.1 mph - N/A   Clear
5:55 PM 71.6 °F 44.6 °F 38% 29.90 in 10.0 mi SSE 6.9 mph - N/A   Clear
6:15 PM 69.8 °F 44.6 °F 40% 29.90 in 10.0 mi SSE 6.9 mph - N/A   Clear
6:35 PM 69.8 °F 44.6 °F 40% 29.89 in 10.0 mi SSE 5.8 mph - N/A   Clear
6:55 PM 68.0 °F 44.6 °F 43% 29.89 in 10.0 mi SSE 5.8 mph - N/A   Clear
7:35 PM 64.4 °F 44.6 °F 49% 29.88 in 10.0 mi SSE 4.6 mph - N/A   Clear
7:55 PM 64.4 °F 44.6 °F 49% 29.88 in 10.0 mi SE 4.6 mph - N/A   Clear
8:15 PM 62.6 °F 44.6 °F 52% 29.88 in 10.0 mi Calm Calm - N/A   Clear
8:35 PM 60.8 °F 44.6 °F 55% 29.87 in 10.0 mi SE 3.5 mph - N/A   Clear
8:55 PM 60.8 °F 44.6 °F 55% 29.87 in 10.0 mi SE 3.5 mph - N/A   Clear
9:15 PM 60.8 °F 44.6 °F 55% 29.87 in 10.0 mi Calm Calm - N/A   Clear
9:35 PM 60.8 °F 44.6 °F 55% 29.86 in 10.0 mi SE 4.6 mph - N/A   Clear
9:55 PM 60.8 °F 44.6 °F 55% 29.87 in 10.0 mi Calm Calm - N/A   Clear
10:15 PM 59.0 °F 44.6 °F 59% 29.87 in 10.0 mi SSE 3.5 mph - N/A   Clear
10:35 PM 59.0 °F 44.6 °F 59% 29.88 in 10.0 mi Calm Calm - N/A   Clear
10:55 PM 59.0 °F 44.6 °F 59% 29.89 in 10.0 mi Calm Calm - N/A   Clear
11:15 PM 55.4 °F 44.6 °F 67% 29.90 in 10.0 mi Calm Calm - N/A   Clear
11:35 PM 53.6 °F 46.4 °F 77% 29.89 in 10.0 mi Calm Calm - N/A   Clear
11:55 PM 51.8 °F 46.4 °F 82% 29.90 in 10.0 mi Calm Calm - N/A   Clear